Regional Weather Roundup
Issued by NWS Charleston, SC

Current Version | Previous Version | Text Only | Print | Product List | Glossary Off
Versions: 1 2 3 4 5 6 7 8 9 10 11 12 13 14 15 16 17 18 19 20 21 22 23 24 25 26 27 28 29 30 31 32 33 34 35 36 37 38 39 40 41 42 43 44 45 46 47 48 49 50
000 ASUS42 KCHS 030312 RWRCHS REGIONAL WEATHER ROUNDUP NATIONAL WEATHER SERVICE CHARLESTON SC 1100 PM EDT TUE JUN 02 2015 NOTE: "FAIR" INDICATES FEW OR NO CLOUDS BELOW 12,000 FEET WITH NO SIGNIFICANT WEATHER AND/OR OBSTRUCTIONS TO VISIBILITY. NOT ALL STATIONS ARE QUALITY CONTROLLED BY THE NATIONAL WEATHER SERVICE. USE DATA WITH CAUTION...ESPECIALLY DEWPOINT OBSERVATIONS. SCZ027-030-031-034>040-042>050-030400- ...SOUTHEAST SOUTH CAROLINA... CITY SKY/WX TMP DP RH WIND PRES REMARKS N CHARLESTON CLOUDY 75 71 87 SW5 29.97S WATERFRONT PAR N/A 78 72 81 VRB3 29.94R MOUNT PLEASANT LGT RAIN 75 72 88 SE3 29.98R JOHNS ISLAND PTCLDY 79 72 78 CALM 29.98R PINOPOLIS N/A 73 68 83 CALM 29.91R MONCKS CORNER FAIR 70 66 88 CALM 29.98S SUMMERVILLE FAIR 72 72 100 CALM 29.99R BEAUFORT MCAS CLOUDY 76 72 87 W5 29.98R BEAUFORT ARPT FAIR 77 73 88 CALM 29.96S HILTON HEAD IS N/A N/A N/A N/A MISG N/A WALTERBORO CLOUDY 68 68 100 NW3 29.99R ALLENDALE CLOUDY 70 66 88 CALM 29.98S THUNDER ...SOUTHERN MIDLANDS AND PEE DEE... CITY SKY/WX TMP DP RH WIND PRES REMARKS GEORGETOWN NOT AVBL KINGSTREE NOT AVBL ORANGEBURG LGT RAIN 69 66 90 N6 30.00R BARNWELL LGT RAIN 68 64 88 SE7 29.99R AIKEN FAIR 70 59 68 S10 30.01R MANNING CLOUDY 70 66 88 N3 30.00R COLUMBIA TSTM 69 64 84 SE7 29.98F SUMTER CLOUDY 69 64 82 NW9 29.99R FLORENCE CLOUDY 72 65 78 E5 30.00R MYRTLE BEACH CLOUDY 79 70 73 S9 30.01R N MYRTLE BEACH MOCLDY 78 70 76 S8 29.99R $$ GAZ063-065-086>088-099>101-113>116-118-119-134>141-150-030400- ...SOUTHEAST GEORGIA... CITY SKY/WX TMP DP RH WIND PRES REMARKS SAVANNAH ARPT CLOUDY 73 70 90 S3 29.98R HUNTER AAF CLOUDY 74 73 95 SW3 29.96R FORT STEWART CLOUDY 72 67 84 CALM 29.95S STATESBORO CLOUDY 71 71 100 CALM 29.98S SYLVANIA CLOUDY 73 70 92 CALM 29.99F CLAXTON FAIR 68 68 100 CALM 29.97S ...CSRA...CENTRAL AND FAR SOUTHEAST GEORGIA... CITY SKY/WX TMP DP RH WIND PRES REMARKS THOMSON MOCLDY 75 70 84 SE3 30.00S AUGUSTA-BUSH LGT RAIN 68 65 90 S9 29.96S AUGUSTA-DANIEL CLOUDY 72 64 76 S10 29.97S SWAINSBORO FAIR N/A N/A N/A CALM 29.98S VIDALIA CLOUDY 70 68 94 CALM 29.97S EASTMAN FAIR 73 70 91 S5 29.98F HAZLEHURST FAIR 73 71 95 S3 29.95S ALMA CLOUDY 71 69 93 S3 29.96S WAYCROSS CLOUDY 73 70 88 S8 29.96F JESUP FAIR 73 70 88 CALM 29.97S BAXLEY FAIR 72 70 94 S3 29.95F BRUNSWICK CLOUDY 68 68 100 CALM 29.98R SAINT SIMONS NOT AVBL $$ SCZ027-028-034-036>038-045-046-048>050-GAZ119-141-030400- ...LAKE AND SUPPLEMENTAL COASTAL OBSERVATIONS... STATION/POSITION TIME TEMP WIND PRES WAVE SWELL AIR SEA DIR/SP/G HT/PER HT/PER/DIR (UTC) (F) (DEG/KT/KT) (MB) (FT/S) (FT/S/D) UPR LAKE MARION NOT AVBL WINYAH BAY 0145 78 180/ 6 1014.0 LAKE MURRAY 0200 71 100/ 7/ 11 1014.9R ACE BASIN NERRS NOT AVBL FORT PULASKI 0200 78 81 180/ 5/ 10 1015.0S SAPELO ISLAND 0200 73 270/ 5 1015.0R $$ ANZ835-935-AMZ111-154-330-350-352-354-370-450-454-472-030400- ...C-MAN AND BUOY OBSERVATIONS... STATION/POSITION TIME TEMP WIND PRES WAVE SWELL AIR SEA DIR/SP/G HT/PER HT/PER/DIR (UTC) (F) (DEG/KT/KT) (MB) (FT/S) (FT/S/D) BUOY 41004 0250 80 81 180/ 12/ 14 1014.6R 2/ 8 2/ 8 BUOY 41008 0250 76 79 260/ 8/ 10 1015.0R 2/ 8 2/120/ 8 FOLLY BEACH CMAN 0300 79 200/ 10/ 11 1015.3R CAPERS NEARSHORE 0208 79 200/ 12/ 16 1014.9R FRIPP NEARSHORE 0200 79 180/ 12/ 16 1014.3R STATION/POSITION TIME TEMP WIND PRES WAVE SWELL AIR SEA DIR/SP/G HT/PER HT/PER/DIR (UTC) (F) (DEG/KT/KT) (MB) (FT/S) (FT/S/D) 5E ST. MARYS GA 0221 81 N/A 2/ 8 FRYING PAN BUOY 0250 80 78 170/ 6/ 8 1016.3R 3/ 8 2/110/ 8 BUOY 41025 0250 78 81 270/ 4/ 4 1016.5R 3/ 8 2/110/ 8 CAPE LOOKOUT NC 0300 77 120/ 5/ 6 1016.2R BUOY 41002 0250 78 78 170/ 6/ 8 1017.6R 3/ 8 3/110/ 8 BUOY 41010 0220 79 81 150/ 8/ 10 1016.0R ST AUGUSTINE FL 0300 70 76 230/ 5/ 6 1016.2F $$

USA.gov is the U.S. government's official web portal to all federal, state and local government web resources and services.